Location: El Bakhil
(32.7726°N, 5.5387°W)
Time: 10:36:26
(UTC+00:00)

Cosmos 2333 Rocket - Pass Details

Date: 03 March 2021
Orbit: 837 x 864 km, 70.8° (Epoch: 15 April)

Event Time Altitude Azimuth Distance (km) Brightness Sun altitude
Rises 20:25:54 0° 216° (SW) 3,380 5.7 -26.9°
Reaches altitude 10° 20:28:26 10° 222° (SW) 2,452 5.0 -27.5°
Maximum altitude 20:33:49 45° 295° (WNW) 1,133 3.2 -28.6°
Drops below altitude 10° 20:39:16 10° 7° (N) 2,481 4.7 -29.7°
Sets 20:41:50 0° 14° (NNE) 3,425 5.4 -30.2°
